Location: Milton Keynes
(52.0316°N, 0.7531°W)
Time: 20:56:58
(UTC+01:00)

Genesis I - Visible Passes

Search period start: 25 September 2020 00:00
Search period end: 05 October 2020 00:00
Orbit: 504 x 518 km, 64.5° (Epoch: 24 September)

Date Brightness Start Highest point End Pass type
(mag) Time Alt. Az. Time Alt. Az. Time Alt. Az.
25 Sep 5.9 03:07:42 17° NNE 03:07:42 17° NNE 03:08:56 10° NNE visible
25 Sep 5.7 04:42:35 10° NW 04:44:29 13° N 04:46:29 10° NNE visible
25 Sep 5.6 06:20:51 10° NNW 06:23:29 17° NNE 06:26:08 10° ENE visible
26 Sep 6.2 02:50:59 14° NNE 02:50:59 14° NNE 02:51:43 10° NNE visible
26 Sep 5.7 04:25:52 12° NNW 04:27:16 13° N 04:29:16 10° NNE visible
26 Sep 5.7 06:03:39 10° NNW 06:06:17 17° NNE 06:08:55 10° ENE visible
27 Sep 6.5 02:34:17 11° NNE 02:34:17 11° NNE 02:34:30 10° NNE visible
27 Sep 5.8 04:09:10 13° NNW 04:10:03 13° N 04:12:03 10° NNE visible
27 Sep 5.7 05:46:26 10° NNW 05:49:03 17° NNE 05:51:41 10° ENE visible
28 Sep 5.8 03:52:29 13° NNW 03:52:50 13° N 03:54:50 10° NNE visible
28 Sep 5.7 05:29:13 10° NNW 05:31:51 17° NNE 05:34:28 10° ENE visible
29 Sep 6.0 03:35:49 13° N 03:35:49 13° N 03:37:38 10° NNE visible
29 Sep 5.8 05:12:00 10° NNW 05:14:38 17° NNE 05:17:15 10° ENE visible
30 Sep 6.1 03:19:10 13° N 03:19:10 13° N 03:20:25 10° NNE visible
30 Sep 5.8 04:54:48 10° NNW 04:57:25 17° NNE 05:00:02 10° ENE visible
01 Oct 6.4 03:02:34 12° NNE 03:02:34 12° NNE 03:03:12 10° NNE visible
01 Oct 5.8 04:37:35 10° NNW 04:40:12 17° NNE 04:42:48 10° ENE visible
01 Oct 4.1 06:14:49 10° NW 06:18:37 49° NE 06:22:24 10° ESE visible
02 Oct 5.8 04:20:55 12° NNW 04:22:59 17° NNE 04:25:35 10° ENE visible
02 Oct 4.1 05:57:36 10° NW 06:01:24 48° NE 06:05:11 10° ESE visible
03 Oct 5.7 04:04:28 15° N 04:05:45 17° NNE 04:08:21 10° ENE visible
03 Oct 4.1 05:40:24 10° NW 05:44:11 48° NE 05:47:58 10° ESE visible
04 Oct 5.8 03:48:05 16° N 03:48:32 17° NNE 03:51:08 10° ENE visible
04 Oct 4.1 05:23:11 10° NW 05:26:58 48° NE 05:30:45 10° ESE visible
